Location: Spring Creek
(38.2870°N, 100.2160°W)
Time: 02:57:53
(UTC+00:00)

Cosmos 1328 Rocket - Pass Details

Date: 08 May 2021
Orbit: 601 x 627 km, 82.5° (Epoch: 22 June)

Event Time Altitude Azimuth Distance (km) Brightness Sun altitude
Exits shadow 03:49:45 66° 117° (ESE) 687 3.4 -22.1°
Maximum altitude 03:50:00 67° 95° (E) 680 3.5 -22.1°
Drops below altitude 10° 03:54:24 10° 13° (NNE) 2,004 6.6 -22.7°
Sets 03:56:39 0° 11° (N) 2,912 7.5 -23.0°
